Vorticity
7 5 5 5 7 5 4 5 6 3 1 6 17 8 5 4 11 10 15 22 3 2 8 10 10 7 6 7 7 7 8 8 1 4 1 3 6 4 4 3 3 4 3 1
3 5 6 5 4 4 3 4 5 5 6 5 4 14 9 6 4 8 10 9 15 23 6 3 5 9 10 8 7 6 7 6 8 8 5 4 2 4 3 3 3 3 4 0
5 5 3 5 5 5 7 3 5 5 5 6 4 4 7 14 7 6 4 9 10 9 11 17 17 9 2 4 7 9 8 8 7 7 7 8 8 10 12 11 8 9 9 5
3 4 2 4 5 4 4 6 5 3 5 9 6 5 4 5 13 10 6 5 4 7 12 9 10 11 15 20 19 11 3 1 2 4 4 4 3 4 4 2 4 2 -0 3
5 5 4 5 3 6 3 2 7 6 6 5 5 7 4 5 4 6 12 9 6 5 4 5 6 12 12 11 8 7 11 15 21 28 27 26 22 19 20 21 23 24 22 22
6 5 6 4 3 4 7 5 3 3 6 7 5 3 7 6 4 3 5 6 11 10 8 5 5 4 4 5 6 8 10 11 14 14 13 16 19 18 17 19 20 21 22 20
5 4 4 6 5 5 3 3 4 4 3 2 4 8 4 6 7 4 3 5 5 6 9 11 9 6 5 5 4 4 4 4 4 4 4 5 4 7 6 5 5 6 7 8
6 5 5 4 5 6 7 2 4 3 1 4 5 3 5 6 3 6 6 5 5 5 6 8 10 11 11 9 8 6 5 4 5 6 4 5 5 4 4 4 5 5 5 6
5 5 4 4 6 5 5 10 5 3 4 4 5 4 4 4 6 5 5 7 7 5 5 5 10 7 6 10 13 11 9 8 8 8 7 6 5 6 5 7 7 5 6 6
4 5 4 3 4 4 4 4 6 6 2 0 4 6 6 7 7 7 7 8 9 10 9 9 7 7 10 5 5 6 7 9 10 10 11 13 12 11 10 11 11 10 8 6
7 5 4 3 4 2 2 4 3 4 6 6 7 6 7 9 7 7 6 7 9 10 10 10 10 10 10 8 7 6 5 5 4 7 7 5 7 8 9 8 8 8 10 12
10 9 4 4 4 4 3 1 4 5 7 4 4 6 6 6 9 8 10 11 9 9 12 11 8 4 -1 3 5 7 4 5 5 7 7 7 7 7 7 8 6 7 7 7
18 12 15 13 9 6 5 5 9 11 7 9 5 9 7 9 8 9 10 7 6 10 7 4 3 4 5 3 4 5 7 7 8 8 8 5 5 4 4 5 5 4 4 5
25 24 19 23 25 21 22 19 23 20 11 5 7 5 8 10 10 11 10 9 10 10 7 5 6 6 5 7 7 9 5 2 8 6 6 4 5 5 6 4 6 7 8 8
6 9 11 12 15 16 19 23 20 19 18 21 22 19 15 15 12 13 11 12 14 11 10 5 5 4 8 7 6 10 8 5 5 5 5 7 5 6 7 7 7 5 6 7
2 4 6 6 6 8 10 9 9 11 11 9 11 10 12 12 10 10 10 12 12 6 5 6 6 8 6 6 7 8 9 8 7 5 5 6 5 7 8 8 8 8 7 8
9 13 12 5 7 15 10 3 7 8 11 13 10 9 11 10 10 9 8 7 7 8 8 5 7 6 3 2 5 9 7 5 7 6 7 8 8 7 9 11 11 8 8 8
8 3 9 11 5 -4 4 15 12 8 7 5 3 -5 10 8 4 5 6 7 7 6 6 6 5 3 5 1 14 10 10 9 10 13 12 11 12 13 11 8 7 6 7 8
14 15 13 12 5 16 19 23 24 15 6 10 5 9 8 6 5 4 6 5 8 6 6 7 10 4 6 13 15 14 13 12 11 10 11 12 12 9 7 7 7 5 6 8
12 13 7 9 10 8 7 13 6 8 2 9 4 9 4 11 7 7 8 9 4 7 4 10 8 12 16 17 11 8 8 9 10 10 12 10 6 5 5 4 8 11 13 12
19 16 18 16 17 20 15 13 8 7 13 11 11 14 12 8 7 14 11 10 9 9 12 7 13 11 13 12 12 12 14 15 15 15 15 15 17 18 16 15 13 15 18 19
13 12 13 12 13 12 5 6 9 12 12 15 15 8 8 5 -1 -2 9 9 10 10 10 10 14 15 16 14 15 16 16 17 18 18 19 19 19 18 18 18 17 16 15 14
16 16 13 11 11 14 11 8 5 6 5 6 6 7 8 12 14 19 19 17 16 16 15 15 19 15 14 14 13 15 16 16 16 19 19 20 20 21 18 15 12 13 14 12
12 12 11 11 14 13 13 13 14 16 16 15 16 17 15 20 19 15 17 14 14 14 14 22 16 15 12 11 14 14 14 16 19 20 21 21 19 17 12 11 10 8 7 7
10 10 10 9 11 14 13 12 13 12 13 14 14 13 11 11 12 13 14 16 13 19 21 13 12 14 17 18 18 17 15 13 14 13 10 7 7 8 9 7 9 9 10 13
11 12 12 13 12 12 13 13 13 12 10 11 13 13 12 11 11 15 16 17 19 22 15 12 16 17 15 16 16 13 12 12 11 10 7 9 11 10 8 9 10 6 6 5
13 12 12 14 13 11 13 13 15 15 15 14 12 14 14 15 13 18 19 19 8 8 16 18 17 15 14 15 13 10 9 10 10 9 12 10 8 5 6 4 -3 6 3 8
Height
5774 5771 5769 5767 5765 5763 5762 5759 5756 5754 5750 5747 5742 5738 5734 5731 5728 5726 5724 5723 5724 5724 5724 5723 5723 5725 5727 5729 5731 5733 5736 5737 5740 5744 5747 5750 5753 5756 5758 5760 5763 5764 5765 5768
5769 5768 5766 5765 5763 5762 5759 5757 5755 5753 5751 5748 5744 5741 5738 5735 5731 5729 5728 5726 5726 5726 5726 5727 5727 5728 5728 5730 5732 5734 5737 5739 5741 5743 5746 5747 5749 5751 5753 5754 5755 5757 5757 5760
5761 5762 5762 5762 5760 5759 5758 5755 5754 5752 5749 5747 5744 5741 5739 5737 5736 5733 5730 5729 5727 5727 5727 5727 5728 5729 5730 5731 5733 5735 5737 5738 5739 5741 5742 5744 5746 5747 5748 5749 5749 5751 5751 5750
5756 5757 5755 5755 5755 5755 5754 5753 5751 5749 5748 5745 5742 5741 5739 5737 5736 5735 5734 5731 5730 5728 5728 5727 5727 5728 5728 5728 5729 5731 5733 5735 5737 5737 5739 5739 5741 5741 5741 5742 5742 5742 5744 5741
5750 5750 5751 5749 5749 5749 5749 5749 5747 5746 5744 5743 5741 5738 5738 5736 5735 5734 5733 5732 5732 5731 5730 5728 5728 5727 5727 5728 5728 5728 5728 5729 5730 5732 5733 5734 5734 5734 5734 5734 5733 5733 5731 5731
5742 5742 5744 5745 5743 5741 5743 5743 5741 5741 5741 5739 5738 5737 5735 5734 5732 5732 5731 5730 5728 5728 5728 5727 5727 5726 5726 5726 5727 5726 5726 5725 5725 5726 5726 5726 5729 5728 5727 5727 5726 5725 5724 5723
5732 5733 5734 5736 5736 5736 5734 5734 5735 5734 5733 5733 5734 5733 5732 5731 5731 5729 5727 5726 5725 5725 5724 5723 5722 5723 5723 5722 5723 5723 5722 5722 5721 5721 5720 5721 5722 5721 5720 5719 5719 5719 5718 5716
5721 5722 5723 5724 5726 5727 5727 5726 5727 5727 5726 5726 5725 5725 5726 5724 5724 5725 5724 5722 5721 5720 5719 5719 5718 5717 5718 5718 5718 5718 5717 5717 5716 5716 5713 5715 5714 5713 5713 5712 5713 5711 5709 5708
5707 5709 5711 5712 5712 5715 5716 5716 5716 5717 5718 5718 5719 5718 5716 5717 5717 5716 5716 5716 5715 5715 5714 5711 5713 5712 5711 5711 5711 5711 5710 5710 5710 5709 5708 5707 5707 5705 5704 5702 5702 5701 5700 5699
5692 5694 5696 5699 5700 5701 5703 5703 5705 5706 5707 5708 5708 5708 5709 5708 5707 5708 5708 5707 5707 5707 5707 5706 5705 5704 5703 5703 5703 5704 5702 5701 5700 5699 5698 5700 5698 5697 5695 5694 5695 5690 5688 5686
5675 5678 5681 5683 5685 5687 5689 5690 5691 5693 5694 5696 5696 5697 5698 5698 5698 5698 5698 5698 5697 5698 5698 5698 5698 5697 5697 5696 5695 5694 5693 5692 5691 5689 5688 5689 5688 5686 5686 5685 5682 5679 5677 5675
5658 5661 5664 5666 5670 5672 5674 5676 5677 5679 5680 5682 5683 5684 5685 5685 5686 5687 5686 5687 5686 5686 5686 5687 5687 5687 5687 5686 5687 5685 5684 5684 5682 5681 5679 5676 5674 5673 5673 5671 5668 5667 5667 5665
5641 5645 5647 5650 5652 5654 5657 5659 5661 5663 5665 5666 5668 5670 5671 5671 5673 5674 5675 5674 5674 5675 5674 5675 5675 5676 5677 5676 5676 5674 5673 5671 5671 5669 5668 5664 5661 5660 5658 5656 5654 5652 5649 5648
5625 5628 5631 5633 5635 5637 5640 5643 5645 5647 5649 5650 5653 5654 5656 5657 5659 5660 5661 5662 5661 5662 5661 5662 5662 5663 5663 5665 5663 5663 5662 5659 5657 5657 5656 5652 5651 5648 5646 5644 5640 5638 5636 5635
5612 5615 5617 5619 5621 5623 5625 5627 5630 5632 5634 5636 5638 5640 5642 5644 5646 5646 5646 5647 5647 5647 5647 5648 5650 5649 5649 5650 5650 5652 5649 5645 5643 5642 5641 5639 5638 5635 5632 5629 5627 5624 5621 5618
5599 5602 5606 5608 5610 5610 5611 5612 5617 5618 5618 5621 5624 5628 5629 5630 5631 5632 5632 5632 5632 5633 5634 5635 5635 5637 5634 5635 5636 5638 5635 5630 5628 5627 5625 5623 5621 5619 5616 5614 5611 5608 5605 5603
5581 5585 5590 5592 5596 5600 5599 5602 5606 5605 5606 5607 5609 5613 5618 5619 5618 5617 5617 5618 5618 5618 5619 5620 5621 5621 5617 5617 5619 5622 5616 5614 5612 5610 5608 5606 5603 5601 5599 5596 5592 5590 5588 5585
5561 5566 5571 5576 5581 5584 5586 5587 5590 5592 5593 5592 5592 5601 5606 5605 5604 5603 5602 5603 5602 5603 5603 5605 5605 5602 5601 5600 5605 5602 5599 5595 5593 5591 5590 5588 5586 5584 5581 5578 5575 5573 5571 5569
5542 5547 5552 5556 5562 5567 5573 5572 5571 5575 5578 5576 5580 5586 5589 5588 5587 5586 5586 5586 5585 5586 5586 5587 5586 5586 5584 5586 5583 5582 5580 5578 5576 5573 5571 5570 5568 5566 5564 5561 5560 5557 5554 5551
5524 5529 5534 5537 5545 5549 5553 5554 5555 5555 5557 5560 5566 5568 5569 5572 5572 5570 5571 5568 5567 5565 5569 5567 5566 5568 5571 5566 5563 5562 5562 5560 5558 5556 5554 5552 5550 5548 5547 5544 5541 5537 5535 5532
5506 5511 5517 5519 5523 5528 5531 5534 5536 5538 5542 5547 5552 5552 5552 5554 5554 5554 5553 5548 5548 5548 5550 5549 5548 5553 5554 5546 5544 5543 5542 5541 5540 5537 5535 5533 5531 5528 5526 5524 5522 5520 5517 5515
5488 5496 5499 5502 5506 5510 5512 5516 5519 5523 5525 5530 5534 5534 5535 5536 5537 5536 5536 5534 5531 5532 5534 5532 5533 5535 5532 5529 5527 5525 5523 5522 5520 5519 5517 5515 5513 5511 5509 5507 5504 5502 5500 5496
5475 5480 5482 5487 5490 5492 5494 5501 5507 5510 5512 5514 5517 5518 5518 5518 5520 5519 5519 5518 5517 5517 5516 5516 5519 5514 5513 5512 5510 5508 5506 5505 5504 5503 5501 5499 5497 5496 5494 5491 5488 5487 5485 5481
5463 5467 5470 5473 5476 5480 5486 5490 5493 5496 5497 5498 5500 5502 5502 5501 5502 5502 5502 5502 5501 5500 5503 5503 5500 5499 5497 5496 5495 5493 5491 5489 5487 5487 5486 5484 5483 5482 5480 5478 5476 5473 5470 5466
5450 5455 5457 5464 5466 5469 5474 5476 5480 5481 5484 5485 5487 5488 5489 5487 5487 5489 5488 5487 5486 5487 5488 5487 5485 5484 5485 5483 5482 5480 5479 5478 5476 5475 5473 5472 5471 5470 5467 5462 5460 5456 5454 5450
5439 5444 5449 5452 5455 5459 5462 5465 5467 5469 5471 5472 5473 5474 5474 5475 5474 5477 5475 5473 5475 5475 5473 5473 5473 5472 5471 5470 5469 5469 5468 5466 5464 5463 5461 5460 5458 5455 5453 5451 5446 5442 5437 5434
5430 5435 5437 5440 5444 5448 5451 5454 5456 5458 5459 5459 5459 5462 5462 5462 5461 5463 5462 5462 5461 5462 5463 5462 5461 5461 5459 5459 5459 5458 5457 5456 5454 5452 5450 5448 5445 5442 5439 5436 5432 5426 5423 5417